User: anonymous   Login
Location: Poprad
(49.0500°N, 20.3000°E)
Time: 04:17:23
(UTC+02:00)
Language:

SO-50 - Orbit

View from above orbital plane
View from above orbital plane
View from above satellite
View from above satellite

Ground track
Ground track

The orbit data is extracted from the following two-line orbital elements,

1 27607U 02058C   24108.20375939  .00004950  00000-0  68675-3 0  9993
2 27607  64.5563  48.9470 0031938 141.6898 218.6483 14.78629101147515
Epoch (UTC): 17 April 2024 04:53:24
Eccentricity: 0.0031938
inclination: 64.5563°
perigee height: 611 km
apogee height: 656 km
right ascension of ascending node: 48.9470°
argument of perigee: 141.6898°
revolutions per day: 14.78629101
mean anomaly at epoch: 218.6483°
orbit number at epoch: 14751

The dashed part of the orbit path shows where the satellite is in the earth's shadow,  

DLR